Showing default

AEROCUBE 8D, 41852

Orbit data source: Space-Track

AEROCUBE 8D, 41852 is a payload satellite owned by AERO (US) in SSO that was launched on Fri, 11 Nov 2016 UTC via an ATLAS V 401 launch vehicle from the Air Force Western Test Range (AFWTR). Payload-class satellites include a variety of spacecraft equipped with specific instruments for various scientific and technological missions. These include communications satellites like Starlink; space stations such as the ISS; scientific satellites like the Hubble; Earth observation satellites from companies like Planet Labs, Umbra, and HawkEye 360; GPS; miniature CubeSats for education and research; and military/defense satellites.

Loading next visibility...
Identifier
41852, 2016-067E
Orbit
SSO
Country
Flag of USUS
Related business
Manufacturer
AERO
Mission
Operational Defense Technology
Bus & Motor
CUBESAT 1.5U, Unknown motor
Mass
2 kg wet, 2 kg dry
Launch date (UTC)
2016-11-11 (9 years ago)
Launch vehicle
ATLAS V 401
Launch site
Air Force Western Test Range (AFWTR)
Object type
Payload
Rocket body
Debris
Shape & HBR
Box, 0.1 m
Radar Cross Section
0.025 m², Small (<0.1 m²)

Expand to show TLE details & history
Last TLE update: 11 hours ago

TLE from 11 hours ago
0 AEROCUBE 8D
1 41852U 16067E   25294.68800341  .00011694  00000-0  54937-3 0  9994
2 41852  98.0958 142.0042 0002549 225.4095 134.6931 15.19790080489784
Epoch: 2025-10-21T16:30Z
TLE epoch observation values (Epoch: 2025-10-21T16:30:43.494Z)
Latitude
0.00004°
Longitude
-136.04941°
Altitude
510.779 km
Speed
7.608 km/s
True Right ascension
09h 28m 01s
True Declination
0° 00' 00"
Sunlit
Object was in daylight at epoch
Visualization orbit readout
Latitude
Unknown
Longitude
Unknown
Altitude
Unknown
Speed
Unknown
Apparent Right ascension
Unknown
Apparent Declination
Unknown
Sunlit
N/A
Visualization observer readout
Local Sidereal Time
22:53:19
Azimuth
Unknown
Elevation
Unknown
Doppler factor
Unknown
Orbital elements
Apogee altitude
505.226 km
Perigee altitude
501.717 km
Semi-major axis
6,881.608 km
Eccentricity
0.00025
Inclination
98.0958°
RAAN
142.0042°
Arg. of periapsis
225.4095°
True anomaly
134.71386°
Mean anomaly
134.6931°
Eccentric anomaly
134.70348°
Mean motion
3.80197 °/min
Orbital period
94.69 mins
BSTAR
0.00054937
Loading maneuver chart data...
Computing Atmospheric mass density...
Loading historical data...
Loading historical data...
Loading historical data...
Loading historical data...
Loading historical data...
Loading historical data...
Loading historical data...

Documentation

Showing up to 5 results
|